7 * 24
多渠道服务支持
COSMOS 1650 是一颗俄罗斯 GLONASS 卫星,于1985年发射,属于苏联/俄罗斯的全球导航卫星系统。该卫星用于提供精确的定位和时间同步服务,支持军事和民用应用。作为 GLONASS 系统的一部分,COSMOS 1650 在轨道上运行多年,为全球用户提供导航数据。其发射标志着 GLONASS 系统建设的重要进展,与 GPS 系统形成竞争与互补。该卫星最终退役并脱离轨道,但仍代表了俄罗斯在卫星导航领域的技术实力。
| 数据来源 | 国际轨道数据 |
| 星历时间: | 2025-10-30T18:00:29+0800 1天前 查看轨道信息 |
| 半长轴: | 25508.025km |
| 偏心率: | 0.0032404 |
| 轨道倾角: | 64.756° |
| 近地点辐角 | 30.239° |
| 升交点赤经 | 81.164° |
| 平近点角 | 335.738° |
| 近地点: | 19047.233km |
| 远地点: | 19212.547km |
| 周期: | 675.733分钟 |
| 每日圈数: | 2.13102 |